SCP
0 0 0 0 0 0 0 0 0 0 0 0 0 0 0 0 0 0 0 0 0 0 0 0 0 0 0 0 0 0 0 0 0 0 0 0 0 0 0 0 0 0 0 0
0 0 0 0 0 0 0 0 0 0 0 0 0 0 0 0 0 0 0 0 0 0 0 0 0 0 0 0 0 0 0 0 0 0 0 0 0 0 0 0 0 0 0 0
0 0 0 0 0 0 0 0 0 0 0 0 0 0 0 0 0 0 0 0 0 0 0 0 0 0 0 0 0 0 0 0 0 0 0 0 0 0 0 0 0 0 0 0
0 0 0 0 0 0 0 0 0 0 0 0 0 0 0 0 0 0 0 0 0 0 0 0 0 0 0 0 0 0 0 0 0 0 0 0 0 0 0 0 0 0 0 0
0 0 0 0 0 0 0 0 0 0 0 0 0 0 0 0 0 0 0 0 0 0 0 0 0 0 0 0 0 0 0 0 0 0 0 0 0 0 0 0 0 0 0 0
0 0 0 0 0 0 0 0 0 0 0 0 0 0 0 0 0 0 0 0 0 0 0 0 0 0 0 0 0 0 0 0 0 0 0 0 0 0 0 0 0 0 0 0
0 0 0 0 0 0 0 0 0 0 0 0 0 0 0 0 0 0 0 0 0 0 0 0 0 0 0 0 0 0 0 0 0 0 0 0 0 0 0 0 0 0 0 0
0 0 0 0 0 0 0 0 0 0 0 0 0 0 0 0 0 0 0 0 0 0 0 0 0 0 0 0 0 0 0 0 0 0 0 0 0 0 0 0 0 0 0 0
0 0 0 0 0 0 0 0 0 0 0 0 0 0 0 0 0 0 0 0 0 0 0 0 0 0 0 0 0 0 0 0 0 0 0 0 0 0 0 0 0 0 0 0
0 0 0 0 0 0 0 0 0 0 0 0 0 0 0 0 0 0 0 0 0 0 0 0 0 0 0 0 0 0 0 0 0 0 0 0 0 0 0 0 0 0 0 0
0 0 0 0 0 0 0 0 0 0 0 0 0 0 0 0 0 0 0 0 0 0 0 0 0 0 0 0 0 0 0 0 0 0 0 0 0 0 0 0 0 0 0 0
0 0 0 0 0 0 0 0 0 0 0 0 0 0 0 0 0 0 0 0 0 0 0 0 0 0 0 0 0 0 0 0 0 0 0 0 0 0 0 0 0 0 0 0
0 0 0 0 0 0 0 0 0 0 0 0 0 0 0 0 0 0 0 0 0 0 0 0 0 0 0 0 0 0 0 0 0 0 0 0 0 -0 -0 -0 0 0 0 0
0 0 0 0 0 0 0 0 0 0 0 0 0 0 0 0 0 0 0 0 0 0 0 0 0 0 0 0 0 0 0 0 0 0 0 0 0 -0 -0 -0 0 0 0 0
0 0 0 0 0 0 0 0 0 0 0 0 0 0 0 0 0 0 0 0 0 0 0 0 0 0 0 0 0 0 0 0 0 0 0 0 0 -0 -0 0 0 0 0 0
0 0 0 0 0 0 0 0 0 0 0 0 0 0 0 0 0 0 0 0 0 0 0 0 0 0 0 0 0 0 0 0 0 0 0 0 0 0 0 0 0 0 0 0
0 0 0 0 0 0 0 0 0 0 0 0 0 0 0 0 0 0 0 0 0 0 0 0 0 0 0 0 0 0 0 0 0 0 0 0 0 0 0 0 0 0 0 0
0 0 0 0 0 0 0 0 0 -0 0 0 0 0 0 0 0 0 0 0 0 0 0 0 0 0 0 0 0 0 0 0 0 0 0 0 0 0 0 0 0 0 0 0
0 0 0 0 0 0 0 0 0 0 0 0 0 0 0 0 0 0 0 0 0 0 0 0 0 0 0 0 0 0 0 0 0 0 0 0 0 0 0 0 0 0 0 0
0 0 0 0 0 0 0 0 0 0 0 0 0 0 0 0 0 0 0 0 0 0 0 0 0 0 0 0 0 0 0 0 0 0 0 0 0 0 0 0 0 0 0 0
0 0 0 0 0 0 0 0 0 0 0 0 0 0 0 0 0 0 0 0 0 0 0 0 0 0 0 0 0 0 0 0 0 0 0 0 0 0 0 0 0 0 0 0
0 0 0 0 0 0 0 0 0 0 0 0 0 0 0 0 0 0 0 0 0 0 0 0 0 0 0 0 0 0 0 0 0 0 0 0 0 0 0 0 0 0 0 0
0 0 0 0 0 0 0 0 0 0 0 0 0 0 0 0 0 0 0 0 0 0 0 0 0 0 0 0 0 0 0 0 0 0 0 0 0 0 0 0 0 0 0 0
0 0 0 0 0 0 0 0 0 0 0 0 0 0 0 0 0 0 0 0 0 0 0 0 0 0 0 0 0 0 0 0 0 0 0 0 0 0 0 0 0 0 0 0
0 0 0 0 0 0 0 0 0 0 0 0 0 0 0 0 0 0 0 0 0 0 0 0 0 0 0 0 0 0 0 0 0 0 0 0 0 0 0 0 0 0 0 0
0 0 0 0 0 0 0 0 0 0 0 0 0 0 0 0 0 0 0 0 0 0 0 0 0 0 0 0 0 0 0 0 0 0 0 0 0 0 0 0 0 0 0 0
0 0 0 0 0 0 0 0 0 0 0 0 0 0 0 0 0 0 0 0 0 0 0 0 0 0 0 0 0 0 0 0 0 0 0 0 0 0 0 0 0 0 0 0
Wind_Speed
5 6 4 5 6 6 7 8 9 9 8 10 7 7 6 6 6 6 6 6 6 6 5 4 5 5 5 6 6 7 7 7 6 5 4 4 4 3 3 3 4 4 3 3
4 5 5 6 7 8 8 6 6 4 8 6 3 5 6 7 8 7 6 6 6 6 6 6 5 5 5 5 5 6 6 5 4 5 4 3 3 3 3 2 2 2 2 2
4 4 2 7 8 9 6 6 8 9 9 4 4 6 6 7 7 8 7 6 6 6 5 5 5 6 6 5 6 6 6 5 5 5 5 4 3 3 3 3 3 3 2 3
3 1 8 9 3 5 6 6 6 5 3 5 6 6 5 4 7 7 7 7 6 5 5 4 5 5 6 7 7 7 7 6 5 6 5 5 4 4 3 3 3 3 3 3
3 5 7 6 3 3 5 5 5 6 6 7 10 8 5 5 6 7 7 7 6 6 6 6 7 8 10 9 9 9 8 7 6 6 6 6 5 5 4 5 5 5 5 5
3 4 7 8 3 1 3 4 4 6 9 10 9 6 4 6 9 9 9 9 9 8 9 9 8 9 12 11 10 9 8 7 7 7 7 7 6 5 5 6 6 6 7 7
5 6 8 5 2 1 5 7 3 6 7 8 4 4 10 11 11 10 10 10 10 10 9 8 8 10 12 11 9 7 8 9 9 8 7 7 6 6 6 7 7 7 7 6
4 5 8 3 1 4 5 2 3 5 5 7 10 14 14 13 13 12 11 11 11 11 10 8 8 11 13 10 7 7 9 9 8 7 7 7 7 7 6 7 7 6 6 5
6 7 5 3 4 4 3 2 1 4 8 13 14 14 14 13 13 12 11 11 10 11 12 9 8 9 12 7 7 9 10 9 8 8 7 7 7 6 6 5 5 4 4 3
5 6 5 4 4 3 1 2 3 8 11 14 15 15 14 13 12 12 11 11 10 11 12 10 8 9 8 7 8 10 10 8 6 7 7 7 5 5 5 4 4 3 3 2
5 5 5 4 2 1 3 6 8 10 11 14 17 16 14 13 12 11 11 10 10 10 11 10 8 8 7 7 8 9 8 7 6 6 6 6 6 5 5 3 2 3 2 1
4 3 2 2 2 3 7 8 10 13 13 13 15 16 15 12 11 11 10 10 10 10 10 9 9 8 6 5 7 8 7 6 4 4 4 5 5 6 10 7 8 7 5 3
2 0 2 2 5 6 8 10 11 13 15 15 13 14 15 12 10 10 10 10 10 10 9 9 8 8 6 5 7 7 6 5 4 4 4 4 4 4 4 6 8 9 8 8
0 2 4 4 6 8 11 13 15 16 15 14 13 14 14 12 11 10 9 9 9 10 9 8 9 7 4 5 7 7 6 6 5 4 3 3 3 3 3 3 3 4 5 7
6 6 7 8 10 11 12 15 17 16 15 14 12 13 13 12 11 10 9 9 10 9 8 8 8 5 4 6 7 6 5 4 4 4 4 4 4 4 3 4 3 3 3 5
8 10 11 12 11 11 12 15 16 14 13 13 12 12 12 12 11 9 8 8 9 8 7 7 6 4 4 6 6 5 4 7 6 4 4 4 4 4 3 3 3 3 3 4
8 7 9 11 11 11 11 11 12 13 12 13 12 12 12 12 11 10 8 8 8 7 6 6 5 4 5 5 5 4 4 5 7 5 4 3 3 3 3 3 2 2 3 3
7 8 8 9 10 11 11 10 11 11 11 11 11 11 11 11 10 9 8 8 9 8 6 5 5 5 5 5 4 4 4 4 3 4 3 3 3 3 3 2 3 3 3 3
10 11 10 10 10 11 10 10 9 9 10 10 11 10 9 8 8 8 7 8 8 6 3 4 7 6 5 5 6 4 4 4 4 4 3 4 4 3 3 2 2 3 3 3
11 11 12 11 11 11 10 9 10 9 8 9 11 10 9 8 7 8 7 6 3 2 3 4 5 5 4 5 6 4 4 5 5 4 3 3 3 3 2 2 3 3 3 3
11 11 12 11 10 9 9 9 9 9 8 8 9 9 8 7 6 6 7 5 2 3 4 6 4 4 4 4 6 4 5 5 4 3 3 3 3 3 3 3 3 3 3 3
8 9 10 9 9 8 6 7 8 9 8 8 8 8 8 7 6 6 5 3 3 4 4 3 3 5 6 6 4 5 5 4 4 3 3 2 2 2 2 3 3 3 3 3
7 8 8 8 8 7 6 6 6 7 7 7 7 7 7 5 4 5 4 2 3 5 4 3 5 8 9 5 4 5 5 4 3 3 2 2 2 2 2 2 2 3 3 4
7 7 7 6 7 8 7 5 5 5 6 6 6 6 6 5 4 3 4 6 7 7 5 5 8 9 8 4 4 4 4 3 3 2 2 2 2 2 2 2 2 2 3 4
6 7 7 7 7 5 5 6 7 7 7 6 6 5 4 3 4 4 4 5 7 7 5 6 8 8 5 4 4 3 3 2 2 2 2 2 2 2 1 2 2 2 3 3
5 5 4 4 4 4 4 4 4 4 4 5 4 4 4 4 5 5 4 5 7 6 5 3 4 5 4 3 3 3 3 2 2 2 2 1 1 1 1 1 2 2 3 3
6 5 4 4 4 3 4 4 4 4 4 5 4 3 4 4 5 5 5 5 4 4 4 3 3 3 3 3 3 2 2 2 1 1 1 0 0 0 1 1 2 2 3 4
Wind_Direction
237 247 233 233 239 201 197 194 191 223 223 244 222 193 181 162 150 146 149 153 159 159 154 149 150 156 162 165 165 166 166 172 179 173 169 170 174 180 184 189 201 199 199 206
269 249 237 246 243 223 223 213 216 227 247 245 183 146 156 160 155 155 154 155 154 149 147 153 156 157 152 152 154 152 156 163 154 147 146 149 150 151 148 146 145 143 161 163
257 272 277 247 222 203 206 203 184 206 229 164 158 165 164 159 155 152 148 141 141 142 144 147 148 148 147 138 125 129 132 130 134 134 129 131 132 124 120 113 104 101 98 102
227 253 233 239 225 196 201 222 202 209 201 169 152 119 93 112 138 136 132 127 124 119 114 110 109 115 114 112 114 113 107 105 111 118 118 116 112 106 97 98 97 91 79 82
177 220 265 282 243 181 181 243 209 185 161 135 124 98 70 70 104 116 117 113 107 104 102 99 104 111 107 101 100 100 100 99 99 104 103 97 94 92 90 90 83 76 72 70
176 203 233 243 241 220 122 261 214 165 160 155 145 144 161 120 108 104 103 101 101 97 93 92 96 105 102 99 96 95 97 94 90 92 96 94 91 85 81 86 83 78 68 61
206 227 257 261 294 110 174 234 190 167 161 158 161 140 127 119 106 102 99 98 97 93 88 86 93 98 95 91 87 89 90 87 82 82 87 89 85 80 83 83 79 74 70 57
191 210 249 295 329 203 231 284 152 147 138 124 116 116 121 119 114 108 103 98 96 94 84 72 81 95 92 85 83 84 84 80 77 76 82 85 86 80 80 85 82 74 70 56
205 224 252 270 250 270 263 242 172 138 129 130 127 127 125 120 114 109 106 100 97 99 90 75 69 89 96 91 91 88 82 76 74 73 70 74 82 85 80 78 83 80 75 64
262 265 276 287 284 285 251 201 140 131 134 133 130 130 125 120 114 111 108 105 104 102 97 87 78 80 89 93 90 88 85 78 74 76 72 66 65 71 81 82 87 87 80 68
254 280 313 316 321 41 97 110 114 116 124 128 127 125 123 118 116 113 108 104 102 101 99 95 90 84 83 89 94 92 89 87 82 81 84 77 68 58 68 65 95 110 103 96
237 244 232 294 6 97 110 115 117 117 114 115 121 122 118 115 115 113 109 105 103 100 98 96 92 85 77 81 95 99 92 84 82 83 82 86 87 70 50 60 64 70 77 76
243 49 103 47 62 81 100 108 111 113 116 114 112 116 116 113 109 109 109 107 106 104 102 99 93 84 76 81 88 92 97 95 88 89 92 92 91 92 74 45 49 51 48 47
123 90 78 71 86 92 101 103 102 99 100 106 110 111 110 108 108 108 108 108 107 104 101 99 92 80 72 87 91 89 89 90 90 88 91 93 92 89 88 80 52 27 23 29
49 79 96 96 92 95 101 104 102 102 104 104 108 111 114 114 112 111 110 108 104 99 97 96 90 75 67 86 91 91 90 88 87 86 84 86 85 83 77 71 59 35 17 14
81 86 93 94 95 101 105 107 107 109 111 111 110 109 109 108 106 103 103 108 107 104 100 95 89 77 81 91 92 86 86 99 98 91 86 81 77 78 74 66 54 38 25 9
100 98 102 101 98 97 97 103 110 114 113 112 113 112 109 106 101 96 93 93 95 94 92 96 94 86 87 92 95 94 89 93 95 91 86 85 82 79 74 66 50 37 20 6
96 100 104 107 107 104 99 99 103 107 111 113 113 111 111 112 112 110 109 104 96 84 73 82 93 87 82 89 95 97 99 98 96 97 92 83 78 73 67 57 47 34 13 6
95 97 94 93 99 103 102 101 99 101 106 110 109 107 106 108 113 114 112 106 103 97 76 79 94 88 83 91 99 94 99 96 86 79 78 79 74 65 60 52 39 22 9 6
91 94 94 92 93 100 102 102 101 100 102 107 107 106 104 107 112 111 104 93 86 110 117 105 97 91 88 94 99 94 96 96 92 85 78 75 69 57 46 38 30 21 14 9
92 93 94 94 91 91 98 105 106 104 104 110 115 118 117 112 111 111 109 101 65 88 103 105 100 97 91 95 95 93 94 92 90 87 85 79 67 53 42 35 30 25 18 7
94 96 96 96 95 88 83 93 104 107 105 105 110 115 114 111 105 94 86 107 117 110 104 99 101 105 104 97 91 91 89 86 84 81 79 74 69 57 45 38 31 23 15 6
91 96 96 96 99 94 83 84 97 106 109 113 120 123 121 120 121 122 113 107 113 112 107 105 112 110 104 95 96 96 93 90 88 84 79 71 65 61 50 36 27 20 12 4
93 93 94 96 95 91 84 75 80 89 95 96 101 112 117 112 90 80 115 124 120 112 104 111 112 108 103 97 97 94 92 90 89 85 80 75 66 57 48 37 26 15 5 357
90 93 97 99 96 97 99 93 84 81 86 85 82 83 86 103 118 119 113 114 115 109 104 110 113 109 104 104 101 99 95 95 99 98 87 81 70 62 48 29 10 356 349 344
82 86 87 92 104 111 109 104 99 95 97 94 82 76 82 88 100 104 105 109 110 106 101 99 104 104 105 106 105 105 102 100 99 93 89 86 78 61 22 358 350 343 337 333
76 78 82 77 70 84 97 103 107 107 112 116 108 95 96 99 101 105 107 108 107 103 101 103 108 113 117 117 114 111 110 109 106 101 96 85 53 345 330 327 324 323 324 327